Regional Weather Roundup
Issued by NWS Mt. Holly, NJ

Home | Current Version | Previous Version | Text Only | Print | Product List | Glossary On
Versions: 1 2 3 4 5 6 7 8 9 10 11 12 13 14 15 16 17 18 19 20 21 22 23 24 25 26 27
000
ASUS41 KPHI 231413
RWRPHI

REGIONAL WEATHER ROUNDUP
NATIONAL WEATHER SERVICE MOUNT HOLLY NJ
1000 AM EDT WED MAY 23 2018

NOTE:  "FAIR" INDICATES FEW OR NO CLOUDS BELOW 12,000 FEET WITH NO
SIGNIFICANT WEATHER AND/OR OBSTRUCTIONS TO VISIBILITY.

 * = STATION DOES NOT REPORT PRECIPITATION (E.G. RAIN, SNOW, ETC.)
        OR FOG.

NJZ015>026-231500-
SOUTHERN NEW JERSEY

CITY           SKY/WX    TMP DP  RH WIND       PRES   REMARKS
POMONA         CLOUDY    71  68  90 NW9       29.94F
WILDWOOD*      CLOUDY    70  68  93 W8        29.96S
MILLVILLE      FAIR      74  67  78 NW10      29.95S
WRIGHTSTOWN    CLOUDY    68  64  88 N7        29.92S
MOUNT HOLLY    PTSUNNY   69  65  86 NW5       29.95S
TRENTON        CLOUDY    70  64  81 NW10      29.94S

$$
NJZ001>014-231500-
NORTHERN NEW JERSEY

CITY           SKY/WX    TMP DP  RH WIND       PRES   REMARKS
SUSSEX         PTSUNNY   66  61  84 NE3       29.96R
ANDOVER*         N/A     66  61  84 N7        29.96R
MORRISTOWN     MOSUNNY   70  63  78 NW8       29.93F
NEWARK         PTSUNNY   72  64  76 NW10      29.92S
TETERBORO      CLOUDY    71  63  75 NW6       29.91F
CALDWELL       PTSUNNY   65  64  97 NW8       29.93F
SOMERVILLE     FAIR      71  65  81 NW8       29.92S
ALLAIRE*       CLOUDY    67  64  90 W10       29.94F
TOMS RIVER*    CLOUDY    67  64  90 W10       29.95R

$$
PAZ043-044-047-054-055-060>062-066>071-231500-
EASTERN PENNSYLVANIA

CITY           SKY/WX    TMP DP  RH WIND       PRES   REMARKS
PHILADELPHIA   PTSUNNY   73  64  73 NW16      29.95F
NORTH PHILA    CLOUDY    71  64  78 NW7       29.96
BLUE BELL*     PTSUNNY   68  64  88 NW7       29.97S
DOYLESTOWN     FAIR      71  64  78 NW9       29.95
QUAKERTOWN*    MOSUNNY   70  64  83 NW7       29.97S
PERKASIE*      CLOUDY    68  66  94 W5        29.98R
POTTSTOWN      CLOUDY    69  66  90 NW8       29.98S
LANCASTER      PTSUNNY   74  64  71 NW9       29.98S
COATESVILLE    FAIR      72  64  78 N10       29.99S
READING        CLOUDY    71  67  87 NW3       29.97R VSB 3/4
ALLENTOWN      PTSUNNY   71  62  73 NW10      29.97R
MOUNT POCONO   PTSUNNY   61  58  90 NW21G28   29.99R
HAZLETON       CLOUDY    61  59  94 N7        30.05R
LEHIGHTON      CLOUDY    68  59  73 NW9       29.99R
WILKES BARRE   PTSUNNY   62  58  86 N16G24    30.01R

$$
DEZALL-MDZ008-012-015-019-020-231500-
DELAWARE AND EASTERN MARYLAND

CITY           SKY/WX    TMP DP  RH WIND       PRES   REMARKS
WILMINGTON     FAIR      76  65  68 NW16      29.96R
DOVER          MOSUNNY   74  68  79 W10       29.95S
GEORGETOWN     PTSUNNY   76  68  76 NW7       29.97R
EASTON         MOSUNNY   77  68  73 N13       30.01R
ABERDEEN       MOSUNNY   76  65  69 NW7       29.97F
PATUXENT       FAIR      80  69  69 NW10      29.98
OCEAN CITY     FAIR      76  70  82 NW10      29.96S
WALLOPS ISLAND FAIR      78  71  79 W9        29.97R
CAMBRIDGE      SUNNY     75  68  78 NW12      29.97S
SALISBURY      FAIR      75  70  84 W8        29.96S

$$
PAZ001-021-NYZ056-072-MDZ011-DCZ001-231500-
OTHER NEARBY LOCATIONS

CITY           SKY/WX    TMP DP  RH WIND       PRES   REMARKS
HARRISBURG     PTSUNNY   74  59  59 NW12      29.98R
STATE COLLEGE  CLOUDY    63  57  82 NW7       30.07R
WILLIAMSPORT   CLOUDY    67  56  67 N8        30.01S
BINGHAMTON     CLOUDY    58  52  80 N7        30.04R
NEW YORK CITY  CLOUDY    67  63  87 VRB3      29.95F
BALTIMORE      FAIR      77  64  64 NW9       29.97S
WASHINGTON DC  PTSUNNY   79  66  64 N9        29.99S

$$




USA.gov is the U.S. government's official web portal to all federal, state and local government web resources and services.